Indianapolis, IN

8:50 PM EDT on October 16, 2019 (GMT -0400)
Indianapolis International

Weather History for KIND - June, 2019

Change the Weather History Date:

Sunday, June 9, 2019

  Actual Average Record
Temperature  
Mean Temperature 71 °F 70 °F  
Max Temperature 75 °F 80 °F 94 °F (1914)
Min Temperature 67 °F 60 °F 41 °F (1885)
Degree Days  
Heating Degree Days 0 1  
Month to date heating degree days 0 11  
Since 1 June heating degree days 0 11  
Since 1 July heating degree days 5376 5373  
Cooling Degree Days 6 6  
Month to date cooling degree days 57 48  
Year to date cooling degree days 168 132  
Since 1 June cooling degree days 57 48  
Growing Degree Days 20 (Base 50)    
Moisture  
Dew Point 67 °F    
Average Humidity 87    
Maximum Humidity 100    
Minimum Humidity 73    
Precipitation  
Precipitation 0.65 in 0.14 in 2.11 in (1880)
Month to date precipitation 1.22 1.30  
Year to date precipitation 22.86 18.70  
Snow  
Snow 0.00 in 0.00 in T in (1950)
Month to date snowfall 0.0 0.0  
Since 1 June snowfall 0.0 0.0  
Since 1 July snowfall 19.4 25.9  
Snow Depth 0.00 in    
Sea Level Pressure  
Sea Level Pressure 29.90 in    
Wind  
Wind Speed 8 mph (East)    
Max Wind Speed 16 mph    
Max Gust Speed 22 mph    
Visibility 7 miles    
Events Rain    
T = Trace of Precipitation, MM = Missing Value Source: NWS Daily Summary

Daily Weather History Graph

Daily Weather History Graph

Search for Another Location

Airport or City:

Astronomy

Jun. 09, 2019 Rise Set
Actual Time 6:17 AM EDT 9:12 PM EDT
Civil Twilight 5:44 AM EDT 9:44 PM EDT
Nautical Twilight 5:03 AM EDT 10:25 PM EDT
Astronomical Twilight 4:16 AM EDT 11:12 PM EDT
Moon 12:54 PM EDT (6/9) 1:52 AM EDT (6/9)
Length of Visible Light 15h 59m
Length of Day
14h 54m
Waxing Crescent, 43% of the Moon is Illuminated
Jun 9
Waxing Crescent
Jun 10
First Quarter
Jun 17
Full
Jun 25
Last Quarter
Jul 2
New

Hourly Weather History & Observations

Time (EDT) Temp. Dew Point Humidity Pressure Visibility Wind Dir Wind Speed Gust Speed Precip Events Conditions
12:16 AM 72.0 °F 63.0 °F 73% 29.90 in 10.0 mi East 15.0 mph - N/A   Overcast
12:54 AM 72.0 °F 63.0 °F 73% 29.89 in 10.0 mi East 13.8 mph - N/A   Overcast
1:06 AM 72.0 °F 63.0 °F 73% 29.90 in 10.0 mi East 10.4 mph - N/A   Overcast
1:25 AM 71.1 °F 63.0 °F 75% 29.90 in 10.0 mi East 11.5 mph - N/A   Overcast
1:54 AM 71.1 °F 63.0 °F 75% 29.88 in 10.0 mi East 15.0 mph 23.0 mph 0.00 in Rain Light Rain
2:54 AM 68.0 °F 64.9 °F 90% 29.87 in 7.0 mi East 9.2 mph - 0.01 in Rain Light Rain
3:46 AM 66.9 °F 64.9 °F 93% 29.89 in 8.0 mi East 9.2 mph - 0.03 in Rain Light Rain
3:54 AM 66.9 °F 64.9 °F 93% 29.87 in 8.0 mi East 10.4 mph - 0.03 in Rain Light Rain
4:54 AM 66.9 °F 64.9 °F 93% 29.87 in 7.0 mi East 8.1 mph - 0.02 in Rain Light Rain
5:08 AM 66.9 °F 64.9 °F 93% 29.89 in 7.0 mi East 8.1 mph - 0.02 in Rain Light Rain
5:22 AM 66.9 °F 66.0 °F 97% 29.88 in 5.0 mi East 8.1 mph - 0.03 in Rain Light Rain
5:24 AM 66.9 °F 66.0 °F 97% 29.89 in 5.0 mi East 8.1 mph - 0.03 in Rain Light Rain
5:37 AM 66.9 °F 66.0 °F 97% 29.89 in 5.0 mi East 8.1 mph - 0.05 in Rain Light Rain
5:54 AM 66.9 °F 66.0 °F 97% 29.88 in 5.0 mi East 9.2 mph - 0.08 in Rain Light Rain
6:54 AM 66.9 °F 66.0 °F 97% 29.89 in 3.0 mi East 9.2 mph - 0.04 in Rain Rain
7:03 AM 66.9 °F 66.0 °F 97% 29.90 in 5.0 mi East 9.2 mph - 0.02 in Rain Light Rain
7:25 AM 66.9 °F 66.0 °F 97% 29.91 in 8.0 mi East 10.4 mph - 0.02 in Rain Light Rain
7:54 AM 66.9 °F 66.0 °F 97% 29.90 in 4.0 mi East 12.7 mph - 0.03 in Rain Light Rain
7:58 AM 66.9 °F 66.0 °F 97% 29.92 in 1.5 mi East 12.7 mph - 0.02 in Rain Heavy Rain
8:14 AM 66.9 °F 66.0 °F 97% 29.92 in 3.0 mi East 9.2 mph - 0.08 in Rain Light Rain
8:54 AM 68.0 °F 66.0 °F 93% 29.91 in 10.0 mi East 10.4 mph - 0.09 in Rain Light Rain
9:39 AM 68.0 °F 66.0 °F 93% 29.92 in 8.0 mi East 11.5 mph - 0.00 in Rain Light Rain
9:54 AM 68.0 °F 66.0 °F 93% 29.91 in 6.0 mi East 12.7 mph - 0.00 in Rain Light Rain
10:04 AM 68.0 °F 66.0 °F 93% 29.92 in 7.0 mi East 10.4 mph - 0.00 in Rain Light Rain
10:54 AM 68.0 °F 66.9 °F 96% 29.91 in 3.0 mi East 11.5 mph - 0.05 in Rain Light Rain
11:54 AM 71.1 °F 69.1 °F 93% 29.91 in 7.0 mi East 9.2 mph - 0.02 in   Overcast
12:31 PM 70.0 °F 68.0 °F 93% 29.92 in 2.0 mi ESE 9.2 mph - 0.00 in Rain Light Rain
12:54 PM 71.1 °F 69.1 °F 93% 29.91 in 6.0 mi ESE 10.4 mph - 0.01 in   Overcast
1:05 PM 71.1 °F 69.1 °F 93% 29.92 in 10.0 mi ESE 8.1 mph - N/A   Overcast
1:54 PM 73.0 °F 69.1 °F 87% 29.90 in 10.0 mi SE 8.1 mph - N/A   Overcast
2:54 PM 73.9 °F 69.1 °F 85% 29.89 in 10.0 mi SE 6.9 mph - N/A   Overcast
3:54 PM 75.0 °F 69.1 °F 82% 29.89 in 10.0 mi ESE 4.6 mph - N/A   Overcast
4:54 PM 73.9 °F 70.0 °F 87% 29.89 in 4.0 mi East 6.9 mph - 0.00 in Rain Light Rain
5:41 PM 73.9 °F 71.1 °F 91% 29.91 in 10.0 mi East 5.8 mph - 0.03 in   Overcast
5:49 PM 73.4 °F 71.6 °F 94% 29.90 in 10.0 mi East 9.2 mph - 0.03 in   Overcast
5:54 PM 73.9 °F 71.1 °F 91% 29.89 in 10.0 mi East 9.2 mph - 0.03 in   Overcast
6:54 PM 73.0 °F 71.1 °F 93% 29.90 in 10.0 mi East 4.6 mph - 0.00 in   Overcast
7:38 PM 72.0 °F 71.1 °F 97% 29.91 in 3.0 mi Calm Calm - 0.09 in Rain Rain
7:54 PM 72.0 °F 71.1 °F 97% 29.90 in 3.0 mi NE 3.5 mph - 0.14 in Rain Light Rain
8:24 PM 72.0 °F 71.1 °F 97% 29.92 in 7.0 mi North 3.5 mph - 0.01 in Rain Light Rain
8:54 PM 71.1 °F 70.0 °F 96% 29.91 in 9.0 mi WNW 4.6 mph - 0.02 in Rain Light Rain
9:28 PM 71.1 °F 70.0 °F 96% 29.92 in 4.0 mi Calm Calm - 0.04 in Rain Light Rain
9:54 PM 71.1 °F 70.0 °F 96% 29.91 in 6.0 mi SSE 8.1 mph - 0.07 in Rain Light Rain
10:54 PM 70.0 °F 69.1 °F 97% 29.90 in 10.0 mi East 5.8 mph - 0.01 in   Overcast
11:02 PM 70.0 °F 69.1 °F 97% 29.92 in 10.0 mi East 5.8 mph - N/A   Overcast
11:54 PM 70.0 °F 69.1 °F 97% 29.91 in 10.0 mi Calm Calm - N/A   Overcast